パンスターズ-フルス彗星

407P/PanSTARRS-Fuls (2020)

English version
Home page
Updated on June 14, 2021

---------------------------------------------------------------------

・ プロフィール

符号 407P/2019 Y2
再発見日 2019年12月21日
再発見光度 18.8等
再発見者 D. Carson Fuls (Mount Lemmon Survey)

・ 写真集

・ 軌道要素

Epoch 2020 Feb. 1.0 TT = JDT 2458880.5                                          
T 2020 Jan. 31.82936 TT                                 Rudenko                 
q   2.1248386            (2000.0)            P               Q                  
n   0.15351486     Peri.   92.34161     -0.98931875     -0.11894672             
a   3.4543720      Node    80.83557     +0.07454113     -0.90957576             
e   0.3848842      Incl.    4.89624     +0.12526783     -0.39815023             
P   6.42                                                                        
From 678 observations 2013 May 5-2020 June 12, mean residual 0".6.              

・ 星図

・ 光度変化

        m1 = 11.0 + 5 logΔ + 15.0 log r

---------------------------------------------------------------------

軌道要素はM.P.E.C. 2020-V68に掲載されたものです。
星図はステラナビゲータ Ver.10 (アストロアーツ) で作成したものです。
光度グラフはComet for Windowsで作成したものです。

---------------------------------------------------------------------

Copyright(C) Seiichi Yoshida (comet@aerith.net). All rights reserved.